[[{"header":{"parameterUnit":"m.s-1","parameterCategory":1,"la1":30.2991,"la2":30.254,"lo1":-89.0895,"lo2":-89.0444,"dy":0.0017,"dx":0.0017,"nx":28,"ny":28,"refTime":"2025-12-30T09:00:00:Z","depth":0,"parameterNumber":2,"parameterNumberName":"U-component_of_WINDS"},"data":[0,0,0,0,0,0,0,0,0,0,0,0,0,0,0,0,0,0,0,0,0,0,0,0,0,0,0,0,0,0,0,0,0,0,0,0,0,0,0,0,0,0,0,0,0,0,0,0,0,0,0,0,0,0,0,0,0,0,1.9292,1.9292,0,1.9284,1.9284,1.9284,1.9259,1.9259,1.9258,1.9258,1.9249,1.9249,1.9249,0,0,0,0,0,0,0,0,0,0,0,0,0,1.9284,1.9284,1.9292,1.9292,1.9292,1.9284,1.9284,1.9284,1.9259,1.9259,1.9258,1.9257,1.9249,1.9249,1.9249,0,0,0,0,0,0,0,0,0,0,0,0,0,1.9283,1.9284,1.9292,1.9278,1.9277,1.9284,1.9284,1.9284,1.9259,1.9259,1.9258,1.9257,1.9248,1.9249,1.9249,1.9269,0,0,1.9251,1.9251,0,0,0,0,0,0,0,0,1.9283,1.9283,1.928,1.9279,1.9278,1.9272,1.9278,1.9279,1.926,1.9266,1.9258,1.9257,1.9257,1.9257,1.9257,1.9268,1.9268,1.9251,1.9251,1.9251,1.9251,0,0,0,0,0,0,0,1.9283,1.9283,1.9289,1.928,1.9279,1.9273,1.9271,1.9278,1.9266,1.9265,1.9264,1.9263,1.9256,1.9257,1.9257,1.9268,1.9251,1.9251,1.9251,1.9251,1.9296,1.9297,0,0,0,0,0,0,1.9285,1.9284,1.9289,1.9289,1.9278,1.9273,1.9272,1.9275,1.9266,1.9264,1.9264,1.9262,1.9256,1.9256,1.9256,1.9279,1.9251,1.9251,1.9252,1.9295,1.9296,1.9297,0,0,0,0,0,0,1.9285,1.9286,1.9289,1.9286,1.9286,1.9274,1.9277,1.9275,1.9275,1.9265,1.9263,1.9267,1.9256,1.9256,1.9266,1.9278,1.9252,1.9252,1.9294,1.9295,1.9297,1.9325,0,0,0,0,0,0,1.9285,1.9286,1.9293,1.9286,1.9286,1.9299,1.9278,1.9275,1.9276,1.9274,1.9267,1.9265,1.9255,1.9266,1.9267,1.9279,1.9252,1.9293,1.9295,1.9296,1.9323,1.9327,1.9331,0,0,0,0,0,1.9285,1.9301,1.9294,1.9294,1.9295,1.93,1.93,1.9289,1.9278,1.9285,1.9278,1.9265,1.9277,1.9267,1.9268,1.928,1.9292,1.9294,1.9296,1.9321,1.9326,1.933,0,0,0,0,0,0,1.9309,1.9299,1.9291,1.9306,1.9304,1.9296,1.9304,1.9294,1.9295,1.9293,1.9278,1.9277,1.929,1.9286,1.9275,1.9299,1.9282,1.9285,1.9301,1.9306,1.931,1.931,1.9253,0,0,0,0,0,1.9316,1.9321,1.9313,1.9326,1.9326,1.9316,1.9317,1.9309,1.9307,1.9305,1.93,1.9297,1.9301,1.9303,1.9305,1.9322,1.9321,1.9331,1.9335,1.9338,1.934,1.935,1.9355,1.9304,1.9304,1.9304,0,0,1.933,1.9326,1.933,1.9331,1.9329,1.9335,1.9315,1.9322,1.9326,1.9306,1.9316,1.9312,1.9309,1.9323,1.9329,1.932,1.9354,1.9341,1.9344,1.9344,1.9353,1.9357,1.9362,1.9305,1.9305,1.9305,0,0,1.936,1.9357,1.9368,1.9367,1.9364,1.9357,1.936,1.9354,1.9351,1.9361,1.9346,1.9351,1.9357,1.9355,1.9355,1.9386,1.9375,1.9388,1.9408,1.9417,1.9421,1.9425,1.9436,1.9441,1.939,1.939,1.939,0,1.9377,1.9386,1.9375,1.9383,1.9384,1.9368,1.9379,1.9378,1.9376,1.9378,1.9368,1.9376,1.9373,1.9387,1.9394,1.9395,1.9398,1.9388,1.9422,1.9425,1.9428,1.9439,1.9443,1.9391,1.9391,1.9391,1.9391,0,1.9409,1.9415,1.9425,1.9424,1.9427,1.9437,1.9427,1.9431,1.9423,1.9417,1.9428,1.9423,1.9425,1.9428,1.9419,1.9441,1.9436,1.9425,1.9407,1.9435,1.9445,1.9449,1.9394,1.9393,1.9393,1.9392,0,0,1.9452,1.9446,1.945,1.945,1.9447,1.9451,1.9461,1.9463,1.9467,1.9467,1.9475,1.9481,1.9471,1.9471,1.9462,1.9471,1.9497,1.9458,1.9458,1.9466,1.9521,1.9529,1.9534,1.9489,1.949,1.949,1.9521,0,1.948,1.9496,1.9487,1.9505,1.9511,1.9496,1.9504,1.9503,1.9499,1.9504,1.9498,1.9503,1.9489,1.949,1.9497,1.9492,1.9507,1.9489,1.9496,1.9497,1.9497,1.9539,1.9548,1.9577,1.9525,1.9525,1.9526,0,1.9514,1.9517,1.9535,1.9532,1.9534,1.9542,1.9544,1.9549,1.9548,1.9544,1.9545,1.9535,1.9545,1.9529,1.9542,1.953,1.9532,1.953,1.9531,1.9531,1.9513,1.954,1.9586,1.959,1.9532,1.9531,1.9531,0,1.9544,1.9552,1.9564,1.9565,1.9561,1.9567,1.9566,1.9564,1.9567,1.9569,1.957,1.9573,1.9575,1.9577,1.9569,1.9557,1.9583,1.9566,1.958,1.9581,1.9586,1.9585,1.9632,1.9588,1.9588,1.9587,1.9587,0,1.9576,1.9588,1.9578,1.9585,1.9599,1.9588,1.9602,1.9599,1.9598,1.9605,1.9592,1.9599,1.9587,1.9592,1.9586,1.9598,1.9599,1.9596,1.9594,1.9597,1.9597,1.9598,1.9596,1.9589,1.9588,1.9588,1.9588,0,1.9612,1.9605,1.9618,1.9614,1.9613,1.9623,1.962,1.9627,1.9622,1.9631,1.9633,1.9625,1.9631,1.9623,1.9628,1.9624,1.9641,1.9635,1.9641,1.964,1.9654,1.9653,1.9703,1.971,1.9661,1.9661,1.9662,0,1.9632,1.9642,1.9639,1.9643,1.9643,1.965,1.9653,1.9643,1.9647,1.9647,1.9654,1.966,1.9663,1.9674,1.9669,1.9673,1.9668,1.9685,1.9668,1.9672,1.9668,1.9668,1.9669,1.9688,1.9689,1.969,1.969,0,1.967,1.9667,1.9672,1.9676,1.9681,1.9683,1.9685,1.9689,1.968,1.9684,1.9691,1.9694,1.97,1.9706,1.9709,1.9707,1.9697,1.9696,1.9699,1.9702,1.9705,1.9704,1.965,1.9694,1.9694,1.9693,1.9693,1.9693,1.9699,1.9707,1.9707,1.9713,1.9714,1.9716,1.9723,1.972,1.9725,1.973,1.9724,1.9733,1.9732,1.9736,1.9736,1.9742,1.9735,1.974,1.9741,1.9742,1.9745,1.9705,1.9743,1.9743,1.9742,1.9742,1.9742,0,1.9737,1.9736,1.9742,1.9746,1.9751,1.9742,1.9744,1.9749,1.9757,1.9758,1.9762,1.977,1.9776,1.9772,1.9777,1.9783,1.9779,1.9785,1.9784,1.9784,1.9751,1.9748,1.9788,1.9788,1.9788,1.9788,1.9788,1.9788,1.9757,1.977,1.9767,1.978,1.978,1.9788,1.979,1.9793,1.9794,1.9804,1.9809,1.9806,1.9806,1.9811,1.9816,1.9815,1.9817,1.9825,1.9822,1.9791,1.9786,1.9782,1.9779,1.9825,1.9825,1.9854,1.9855,1.9855]},{"header":{"parameterUnit":"m.s-1","parameterCategory":1,"la1":30.2991,"la2":30.254,"lo1":-89.0895,"lo2":-89.0444,"dy":0.0017,"dx":0.0017,"nx":28,"ny":28,"refTime":"2025-12-30T09:00:00:Z","depth":0,"parameterNumber":3,"parameterNumberName":"V-component_of_WINDS"},"data":[0,0,0,0,0,0,0,0,0,0,0,0,0,0,0,0,0,0,0,0,0,0,0,0,0,0,0,0,0,0,0,0,0,0,0,0,0,0,0,0,0,0,0,0,0,0,0,0,0,0,0,0,0,0,0,0,0,0,-5.72,-5.7201,0,-5.7322,-5.7324,-5.7325,-5.7324,-5.7322,-5.732,-5.7319,-5.7439,-5.7443,-5.7448,0,0,0,0,0,0,0,0,0,0,0,0,0,-5.6962,-5.6966,-5.72,-5.7202,-5.7203,-5.7322,-5.7324,-5.7326,-5.7324,-5.7322,-5.732,-5.7318,-5.7437,-5.7443,-5.7448,0,0,0,0,0,0,0,0,0,0,0,0,0,-5.7072,-5.6967,-5.72,-5.7217,-5.722,-5.7322,-5.7324,-5.7326,-5.7324,-5.7322,-5.732,-5.7317,-5.7435,-5.7442,-5.7449,-5.7541,0,0,-5.7471,-5.7474,0,0,0,0,0,0,0,0,-5.7066,-5.7081,-5.7213,-5.7216,-5.7219,-5.7306,-5.7284,-5.7398,-5.7325,-5.7284,-5.7319,-5.7316,-5.7396,-5.7406,-5.7434,-5.7546,-5.7552,-5.7471,-5.7475,-5.7478,-5.748,0,0,0,0,0,0,0,-5.7058,-5.7076,-5.7248,-5.7215,-5.7219,-5.7217,-5.723,-5.7305,-5.7352,-5.7288,-5.7288,-5.7303,-5.7397,-5.7427,-5.7437,-5.7553,-5.7471,-5.7477,-5.7482,-5.7484,-5.7749,-5.7752,0,0,0,0,0,0,-5.7048,-5.707,-5.7244,-5.7252,-5.7135,-5.7224,-5.7238,-5.728,-5.7351,-5.736,-5.7305,-5.7302,-5.7417,-5.7429,-5.7441,-5.7555,-5.7478,-5.7485,-5.7489,-5.7747,-5.775,-5.7753,0,0,0,0,0,0,-5.7043,-5.7064,-5.7239,-5.7161,-5.7183,-5.723,-5.7277,-5.7284,-5.7314,-5.7364,-5.7372,-5.7327,-5.7415,-5.7431,-5.7517,-5.7559,-5.7488,-5.7495,-5.7743,-5.7748,-5.7752,-5.7782,0,0,0,0,0,0,-5.7036,-5.7062,-5.7098,-5.7162,-5.7188,-5.7314,-5.728,-5.7288,-5.7327,-5.7325,-5.7387,-5.7395,-5.7414,-5.7507,-5.7524,-5.7568,-5.75,-5.774,-5.7745,-5.775,-5.7778,-5.7787,-5.7795,0,0,0,0,0,-5.7027,-5.71,-5.7099,-5.7121,-5.7234,-5.7317,-5.7331,-5.7353,-5.733,-5.7367,-5.7399,-5.7393,-5.7552,-5.7515,-5.7535,-5.7581,-5.7737,-5.7744,-5.775,-5.7774,-5.7785,-5.7795,0,0,0,0,0,0,-5.7036,-5.7108,-5.7109,-5.7204,-5.7255,-5.7316,-5.7363,-5.7364,-5.7421,-5.7416,-5.744,-5.7454,-5.754,-5.7569,-5.7527,-5.7675,-5.7641,-5.7652,-5.7653,-5.7664,-5.7673,-5.7664,-5.7506,0,0,0,0,0,-5.705,-5.7113,-5.7172,-5.725,-5.7276,-5.7315,-5.7352,-5.7365,-5.7418,-5.7438,-5.7477,-5.7527,-5.7588,-5.7627,-5.7686,-5.7782,-5.7796,-5.7824,-5.7832,-5.7839,-5.7848,-5.7903,-5.7916,-5.7774,-5.7774,-5.7774,0,0,-5.7078,-5.7125,-5.7163,-5.7253,-5.7294,-5.7358,-5.7333,-5.7401,-5.7449,-5.7448,-5.7533,-5.7563,-5.762,-5.7712,-5.7754,-5.7738,-5.7891,-5.7847,-5.7852,-5.7858,-5.7911,-5.7924,-5.7936,-5.7778,-5.7777,-5.7777,0,0,-5.7162,-5.7203,-5.7274,-5.7317,-5.738,-5.7406,-5.7423,-5.7485,-5.7506,-5.7592,-5.7594,-5.765,-5.7754,-5.7796,-5.783,-5.7933,-5.793,-5.7951,-5.7996,-5.8049,-5.806,-5.8071,-5.8108,-5.8122,-5.796,-5.796,-5.796,0,-5.7187,-5.7286,-5.731,-5.738,-5.742,-5.7426,-5.7498,-5.7537,-5.7615,-5.7642,-5.7624,-5.7757,-5.7796,-5.7898,-5.7924,-5.7951,-5.7972,-5.7944,-5.8057,-5.8068,-5.8077,-5.8114,-5.8128,-5.7962,-5.7962,-5.7962,-5.7961,0,-5.7315,-5.7383,-5.7433,-5.7512,-5.7558,-5.7628,-5.7663,-5.7706,-5.7715,-5.7743,-5.7831,-5.7878,-5.7948,-5.7973,-5.7981,-5.8077,-5.8066,-5.8052,-5.8019,-5.8093,-5.8127,-5.8141,-5.7965,-5.7964,-5.7964,-5.7963,0,0,-5.7407,-5.7501,-5.7518,-5.7555,-5.7626,-5.7679,-5.775,-5.782,-5.7858,-5.7911,-5.7972,-5.8062,-5.8051,-5.809,-5.8103,-5.815,-5.823,-5.8131,-5.8132,-5.8149,-5.834,-5.8351,-5.8367,-5.8229,-5.8232,-5.8234,-5.8336,0,-5.7499,-5.7627,-5.7653,-5.7764,-5.7828,-5.7835,-5.7897,-5.7947,-5.7975,-5.8032,-5.8063,-5.8127,-5.8107,-5.8131,-5.8177,-5.8211,-5.8269,-5.8203,-5.8285,-5.8287,-5.8271,-5.8385,-5.8395,-5.8489,-5.835,-5.8352,-5.8354,0,-5.7623,-5.7684,-5.7802,-5.7868,-5.7895,-5.7951,-5.8019,-5.8074,-5.8131,-5.8148,-5.8194,-5.8203,-5.8277,-5.824,-5.8342,-5.8297,-5.8332,-5.8354,-5.8358,-5.8367,-5.8325,-5.8397,-5.852,-5.8534,-5.8375,-5.8373,-5.8372,0,-5.768,-5.7791,-5.7877,-5.7908,-5.7985,-5.8025,-5.8058,-5.8113,-5.8155,-5.8214,-5.8241,-5.8307,-5.8343,-5.8393,-5.842,-5.839,-5.852,-5.8486,-5.8537,-5.8536,-5.8564,-5.8562,-5.8695,-5.8585,-5.8585,-5.8584,-5.8584,0,-5.7781,-5.7853,-5.7904,-5.7956,-5.8038,-5.8066,-5.8146,-5.8179,-5.8228,-5.8287,-5.8296,-5.8351,-5.8382,-5.8442,-5.8463,-5.8545,-5.856,-5.8576,-5.8581,-5.8576,-5.8574,-5.8599,-5.8594,-5.8588,-5.8587,-5.8586,-5.8586,0,-5.7857,-5.7894,-5.7989,-5.8056,-5.8074,-5.8132,-5.8189,-5.824,-5.8269,-5.8344,-5.8363,-5.8408,-5.8479,-5.8511,-5.8596,-5.8611,-5.8705,-5.8704,-5.8687,-5.8688,-5.8738,-5.8734,-5.8892,-5.8915,-5.8789,-5.8791,-5.8792,0,-5.7919,-5.7976,-5.805,-5.8092,-5.8128,-5.8194,-5.8237,-5.8268,-5.8312,-5.8383,-5.8426,-5.8498,-5.8557,-5.8669,-5.8708,-5.8775,-5.8777,-5.8828,-5.8786,-5.878,-5.8779,-5.8776,-5.8782,-5.8835,-5.8836,-5.8837,-5.8838,0,-5.8026,-5.8043,-5.8106,-5.8177,-5.823,-5.8286,-5.8341,-5.8374,-5.8413,-5.8463,-5.8537,-5.8583,-5.8673,-5.8744,-5.8813,-5.8847,-5.8849,-5.8851,-5.8867,-5.8863,-5.8851,-5.8859,-5.8708,-5.8847,-5.8846,-5.8846,-5.8845,-5.8845,-5.8099,-5.815,-5.8212,-5.8283,-5.8328,-5.8381,-5.8433,-5.8471,-5.8533,-5.8611,-5.8624,-5.8703,-5.876,-5.8854,-5.889,-5.8952,-5.8939,-5.8961,-5.8967,-5.8973,-5.8976,-5.8841,-5.8964,-5.8964,-5.8964,-5.8964,-5.8964,0,-5.8207,-5.8248,-5.8313,-5.8392,-5.8449,-5.8449,-5.851,-5.8557,-5.8627,-5.8681,-5.874,-5.8826,-5.8895,-5.8942,-5.9012,-5.9052,-5.9055,-5.907,-5.9067,-5.9075,-5.8983,-5.8963,-5.9066,-5.9066,-5.9066,-5.9066,-5.9066,-5.9066,-5.8271,-5.8359,-5.8383,-5.8493,-5.8533,-5.8613,-5.8648,-5.8696,-5.874,-5.8836,-5.8895,-5.8926,-5.8977,-5.9052,-5.9116,-5.9127,-5.9153,-5.9168,-5.918,-5.9092,-5.9082,-5.9071,-5.9053,-5.9174,-5.9174,-5.9267,-5.9268,-5.9269]}]]